Location: Erlenbrunn
(49.1717°N, 7.6142°E)
Time: 04:17:56
(UTC+00:00)

Cosmos 1943 Rocket - Pass Details

Date: 25 November 2020
Orbit: 811 x 845 km, 71.0° (Epoch: 27 January)

Event Time Altitude Azimuth Distance (km) Brightness Sun altitude
Rises 16:19:42 0° 335° (NNW) 3,351 5.3 -6.9°
Reaches altitude 10° 16:22:39 10° 350° (N) 2,420 4.5 -7.3°
Maximum altitude 16:26:59 23° 42° (NE) 1,700 3.3 -8.0°
Drops below altitude 10° 16:31:18 10° 93° (E) 2,427 4.0 -8.6°
Enters shadow 16:32:40 - 102° (ESE) 2,838 4.4 -8.8°
